This is the latest recevied weather packets stored in our database for station/object WA1NHP. If no packets are shown the sender has not sent any weather packets the latest 10 day(s).
| Time | Temp. | Humidity | Pressure | Rain* | Wind** | Luminosity | Snow |
|---|---|---|---|---|---|---|---|
| 1777322044 | 20° C | 33% | 1023.9 hPa | 0 mm | - | 134 W/m² | - |
| 1777321443 | 20.56° C | 32% | 1023.9 hPa | 0 mm | - | 552 W/m² | - |
| 1777320844 | 20.56° C | 32% | 1023.9 hPa | 0 mm | - | 585 W/m² | - |
| 1777320243 | 20.56° C | 32% | 1023.9 hPa | 0 mm | - | 617 W/m² | - |
| 1777319644 | 20.56° C | 32% | 1023.9 hPa | 0 mm | - | 647 W/m² | - |
| 1777319044 | 21.11° C | 32% | 1023.9 hPa | 0 mm | - | 677 W/m² | - |
| 1777318444 | 20.56° C | 32% | 1023.9 hPa | 0 mm | - | 705 W/m² | - |
| 1777317844 | 21.11° C | 31% | 1023.9 hPa | 0 mm | - | 735 W/m² | - |
| 1777317244 | 21.11° C | 32% | 1023.9 hPa | 0 mm | - | 763 W/m² | - |
| 1777316644 | 21.67° C | 32% | 1023.9 hPa | 0 mm | - | 786 W/m² | - |
| 1777316043 | 21.11° C | 33% | 1023.9 hPa | 0 mm | - | 809 W/m² | - |
| 1777315444 | 20.56° C | 30% | 1023.9 hPa | 0 mm | - | 833 W/m² | - |
| 1777314844 | 20.56° C | 33% | 1023.9 hPa | 0 mm | - | 853 W/m² | - |
| 1777314244 | 21.11° C | 33% | 1023.9 hPa | 0 mm | - | 872 W/m² | - |
| 1777313643 | 20.56° C | 31% | 1023.9 hPa | 0 mm | - | 889 W/m² | - |
| 1777313046 | 20° C | 30% | 1023.9 hPa | 0 mm | - | 902 W/m² | - |
| 1777312444 | 20.56° C | 34% | 1023.9 hPa | 0 mm | - | 925 W/m² | - |
| 1777311844 | 20.56° C | 33% | 1023.9 hPa | 0 mm | - | 935 W/m² | - |
| 1777311244 | 20° C | 36% | 1023.9 hPa | 0 mm | - | 947 W/m² | - |
| 1777310644 | 19.44° C | 36% | 1023.9 hPa | 0 mm | - | 958 W/m² | - |
| 1777310044 | 20° C | 34% | 1023.9 hPa | 0 mm | - | 967 W/m² | - |
| 1777309444 | 20° C | 37% | 1023.9 hPa | 0 mm | - | 974 W/m² | - |
| 1777308844 | 20° C | 38% | 1023.9 hPa | 0 mm | - | 979 W/m² | - |
| 1777308243 | 19.44° C | 35% | 1023.9 hPa | 0 mm | - | 983 W/m² | - |
| 1777307644 | 19.44° C | 36% | 1023.9 hPa | 0 mm | - | 988 W/m² | - |
* Rain latest hour (hover to see other rain measurements)
** Current wind speed in m/s (hover to see current wind gust speed)